Hourly Data Report for May 17, 2012

All times are specified in Local Standard Time (LST). Add 1 hour to adjust for Daylight Saving Time where and when it is observed.

ST. JOHN'S INTL A
NEWFOUNDLAND

47°37'07.000" N
52°45'09.000" W
140.50 m
8403505
71801
YYT

Download Data

Hourly Data (May 2012)
Hourly Data Report for May 17, 2012
Temp Definition
°C
Dew Point Temp Definition
°C
Rel Hum Definition
%
Wind Dir Definition
10's deg

Wind Spd Definition
km/h
Visibility Definition
km
Stn Press Definition
kPa
Hmdx Definition


Wind Chill Definition


Weather Definition


TIME
00:30 Legend Double Dagger 13.3 12.0 92 22 19 10.0 100.87     Rain
01:30 Legend Double Dagger 12.2 11.4 95 18 15 10.0 100.81     Rain
02:30 Legend Double Dagger 12.1 11.5 96 20 23 10.0 100.79     Mostly Cloudy
03:30 Legend Double Dagger 12.9 12.8 99 21 21 10.0 100.74     LegendNANA
04:30 Legend Double Dagger 12.9 12.6 98 21 18 10.0 100.72     LegendNANA
05:30 Legend Double Dagger 13.6 13.1 97 21 31 10.0 100.72     Mostly Cloudy
06:30 Legend Double Dagger 15.0 13.9 93 21 35 10.0 100.69     LegendNANA
07:30 Legend Double Dagger 16.1 14.5 90 21 32 10.0 100.67     LegendNANA
08:30 Legend Double Dagger 17.7 15.0 84 22 32 10.0 100.63     Cloudy
09:30 Legend Double Dagger 18.6 15.1 80 21 37 10.0 100.62     LegendNANA
10:30 Legend Double Dagger 19.9 15.4 75 23 36 10.0 100.61     LegendNANA
11:30 Legend Double Dagger 18.4 14.9 80 22 30 10.0 100.57     Cloudy
12:30 Legend Double Dagger 20.7 15.3 71 24 35 10.0 100.51 25   LegendNANA
13:30 Legend Double Dagger 21.5 15.0 66 21 49 10.0 100.47 25   LegendNANA
14:30 Legend Double Dagger 21.4 15.3 68 21 35 10.0 100.44 26   Mostly Cloudy
15:30 Legend Double Dagger 20.2 14.9 71 22 48 10.0 100.38     LegendNANA
16:30 Legend Double Dagger 18.0 14.6 80 21 33 10.0 100.37     LegendNANA
17:30 Legend Double Dagger 17.6 14.7 83 21 36 10.0 100.28     Cloudy
18:30 Legend Double Dagger 17.3 14.4 83 22 40 10.0 100.25     LegendNANA
19:30 Legend Double Dagger 16.2 14.1 87 21 33 10.0 100.20     LegendNANA
20:30 Legend Double Dagger 16.1 14.0 87 21 38 10.0 100.18     Mostly Cloudy
21:30 Legend Double Dagger 16.0 13.9 87 21 30 10.0 100.13     LegendNANA
22:30 Legend Double Dagger 15.5 13.7 89 21 39 10.0 100.01     LegendNANA
23:30 Legend Double Dagger 15.5 14.1 91 21 48 10.0 99.93     Rain Showers

Notes on Data Quality.

Legend

  • E = Estimated
  • M = Missing
  • NA = Not Available
  • ‡ = Partner data that is not subject to review by the National Climate Archives
Date modified: